Flight Track Log - Related Links

Times and Time Zones

All times are in EDT time to prevent confusion due to time zone crossing. See the ABX555 flight status page for this flight to view local times or setup timezone preferences in your user account.

Time Position Orientation Groundspeed Altitude Reporting Facility
EDT Latitude Longitude Course Direction KTS MPH feet Rate Location/Type
05:47AM 39.0500 -84.6833 270° West 152 175 1,400  Level Cincinnati TRACON
05:48AM 39.0500 -84.7000 270° West 147 169 2,600 1,938 Climbing Cincinnati TRACON
05:49AM 39.0500 -84.7833 270° West 229 264 4,500 2,286 Climbing Cincinnati TRACON
05:50AM 39.1000 -84.8167 333° Northwest 275 316 7,400 2,536 Climbing Cincinnati TRACON
05:51AM 39.1283 -84.7872 39° Northeast 292 336 8,600 2,204 Climbing Indianapolis Center
05:52AM 39.1417 -84.6739 81° East 320 368 11,000 2,311 Climbing Indianapolis Center
05:53AM 39.1508 -84.5369 85° East 378 435 13,300 2,579 Climbing Indianapolis Center
05:54AM 39.1608 -84.3944 85° East 396 456 16,200 2,926 Climbing Indianapolis Center
05:55AM 39.1717 -84.2481 85° East 408 470 19,200 2,705 Climbing Indianapolis Center
05:56AM 39.1828 -84.0961 85° East 420 483 21,700 1,884 Climbing Indianapolis Center
05:57AM 39.2017 -83.9431 81° East 436 502 23,000 1,537 Climbing Indianapolis Center
05:58AM 39.2536 -83.8039 64° Northeast 429 494 24,800 1,770 Climbing Indianapolis Center
05:59AM 39.3092 -83.6606 63° Northeast 440 506 26,600 1,785 Climbing Indianapolis Center
06:00AM 39.3756 -83.4847 64° Northeast 465 535 28,400 1,636 Climbing Indianapolis Center
06:01AM 39.4344 -83.3286 64° Northeast 479 551 29,900 1,587 Climbing Indianapolis Center
06:02AM 39.4956 -83.1653 64° Northeast 499 574 31,600 1,785 Climbing Indianapolis Center
06:03AM 39.5569 -83.0044 64° Northeast 498 573 33,500 1,686 Climbing Indianapolis Center
06:04AM 39.6139 -82.8406 66° East 499 574 35,000 694 Climbing Indianapolis Center
06:05AM 39.6503 -82.6678 75° East 495 570 34,900  Descending Indianapolis Center
06:06AM 39.6853 -82.4961 75° East 489 563 35,000  Climbing Indianapolis Center
06:07AM 39.7208 -82.3256 75° East 486 559 34,900  Descending Indianapolis Center
06:08AM 39.7575 -82.1531 74° East 490 564 35,000 50 Climbing Indianapolis Center
06:09AM 39.7933 -81.9775 75° East 498 573 35,000 -50 Level Indianapolis Center
06:10AM 39.8286 -81.8028 75° East 496 571 34,900  Descending Indianapolis Center
06:11AM 39.8644 -81.6281 75° East 497 572 35,000 50 Climbing Indianapolis Center
06:12AM 39.8719 -81.4503 87° East 490 564 35,000  Level Indianapolis Center
06:13AM 39.8606 -81.3006 96° East 487 560 35,000  Level Indianapolis Center
06:14AM 39.8478 -81.1253 95° East 485 558 35,000  Level Indianapolis Center
06:15AM 39.8331 -80.9522 96° East 481 554 35,000  Level Indianapolis Center
06:16AM 39.8147 -80.7442 96° East 481 554 35,000  Level Indianapolis Center
06:17AM 39.8044 -80.6019 95° East 481 554 35,000  Level Cleveland Center
06:18AM 39.7878 -80.4317 97° East 481 554 35,000  Level Cleveland Center
06:19AM 39.7728 -80.2617 96° East 481 554 35,000  Level Cleveland Center
06:20AM 39.7575 -80.0836 96° East 486 559 35,000  Level Cleveland Center
06:21AM 39.7331 -79.8306 97° East 470 541 35,000 -443 Level Washington Center
06:22AM 39.7167 -79.6353 96° East 480 552 33,900 -2,269 Descending Washington Center
06:23AM 39.6975 -79.4561 98° East 486 559 30,500 -2,975 Descending Washington Center
06:24AM 39.6842 -79.2831 96° East 491 565 27,900 -2,644 Descending Washington Center
06:25AM 39.6664 -79.1175 98° East 475 547 25,300 -2,370 Descending Washington Center
06:26AM 39.6375 -78.9600 103° East 460 529 23,200 -2,083 Descending Washington Center
06:27AM 39.6000 -78.8072 108° East 444 511 21,100 -1,714 Descending Washington Center
06:28AM 39.5703 -78.6633 105° East 427 491 19,800 -1,289 Descending Washington Center
06:29AM 39.5364 -78.5219 107° East 421 484 18,500 -1,171 Descending Washington Center
06:30AM 39.5119 -78.4106 106° East 410 472 17,400 -1,169 Descending Washington Center
06:31AM 39.4797 -78.2642 106° East 400 460 16,200 -1,220 Descending Washington Center
06:32AM 39.4536 -78.1261 104° East 395 455 15,000 -984 Descending Washington Center
06:33AM 39.4503 -77.9861 92° East 389 448 14,200 -744 Descending Washington Center
06:34AM 39.4489 -77.8436 91° East 389 448 13,500 -694 Descending Washington Center
06:35AM 39.4472 -77.7067 91° East 389 448 12,800 -706 Descending Washington Center
06:36AM 39.4475 -77.5669 90° East 383 441 12,100 -750 Descending Washington Center
06:37AM 39.4433 -77.4350 92° East 383 441 11,300 -541 Descending Washington Center
06:38AM 39.4514 -77.3064 85° East 372 428 11,000 -305 Descending Washington Center
06:39AM 39.4678 -77.1750 81° East 367 422 10,700 -657 Descending Washington Center
06:41AM 39.5000 -77.0000 77° East 311 358 9,500 -1,079 Descending Potomac TRACON
06:42AM 39.4833 -76.9000 102° East 288 331 8,200 -1,400 Descending Potomac TRACON
06:43AM 39.4667 -76.8000 102° East 291 335 6,700 -1,368 Descending Potomac TRACON
06:44AM 39.4667 -76.7167 90° East 284 327 5,600 -895 Descending Potomac TRACON
06:45AM 39.4167 -76.6333 128° Southeast 275 316 5,000 -700 Descending Potomac TRACON
06:46AM 39.3667 -76.5500 128° Southeast 271 312 4,200 -626 Descending Potomac TRACON
06:46AM 39.3333 -76.5000 131° Southeast 241 277 3,800 -632 Descending Potomac TRACON
06:47AM 39.2667 -76.4833 169° South 237 273 3,000 -504 Descending Potomac TRACON
06:48AM 39.2000 -76.4500 159° South 240 276 2,800 -496 Descending Potomac TRACON
06:49AM 39.1500 -76.4833 207° Southwest 220 253 2,000 -500 Descending Potomac TRACON
06:50AM 39.1667 -76.5500 288° West 185 213 1,800 -555 Descending Potomac TRACON
06:51AM 39.1667 -76.6000 270° West 146 168 900 -900 Descending Potomac TRACON
06:53AM 39.1667 -76.6667 270° West  Level FlightAware Approximate
07:00AM 39.1754 -76.6683 270° West  Level Estimated

Login

Don't have an account? Register now (free) for customized features, flight alerts, and more!